Simultaneous Nadir Overpasses (SNOs) Predictions

Prediction of SNOs between GOES-16 and AQUA Satellite Orbit:

Table of predicted SNOs for the next 14.0 days since TLE Epoch: 3/2/2024
Index Date Time (GOES-16) GOES-16 Lat,Lon AQUA Lat,Lon Distance(km) Time Diff (sec)
1 03/02/2024 06:48:20 -0.07, -75.20 -0.82, -71.74 394.50 80
2 03/02/2024 19:08:50 0.07, -75.21 -0.24, -76.70 168.96 80
3 03/04/2024 18:55:47 0.06, -75.22 0.56, -72.85 268.40 80
4 03/05/2024 07:16:07 -0.06, -75.21 0.52, -77.77 291.69 80
5 03/07/2024 06:57:44 -0.05, -75.22 -0.33, -73.93 146.38 80
6 03/07/2024 19:18:13 0.04, -75.23 -0.76, -78.89 416.94 80
7 03/09/2024 19:05:09 0.04, -75.24 0.07, -75.04 22.46 80
8 03/11/2024 18:49:24 0.04, -75.27 0.89, -71.19 462.75 80
9 03/12/2024 07:09:44 -0.04, -75.27 0.16, -76.12 96.34 80
10 03/14/2024 06:51:19 -0.04, -75.30 -0.69, -72.27 344.75 80
11 03/14/2024 19:11:47 0.04, -75.31 -0.35, -77.23 218.00 80
